Hourly Weather Otocznia

Today, 1 August, Sunday

Time Temperature Precipitation Wind Pressure Humidity
00:00 +18°C° 0 mm 3 mps 744 mmHg 61%
01:00 +17°C° 0 mm 3 mps 744 mmHg 61%
02:00 +17°C° 0 mm 3 mps 744 mmHg 64%
03:00 +16°C° 0 mm 3 mps 744 mmHg 67%
04:00 +14°C° 0 mm 3 mps 744 mmHg 71%
05:00 +16°C° 0 mm 3 mps 744 mmHg 69%
06:00 +17°C° 0 mm 3 mps 744 mmHg 68%
07:00 +18°C° 0 mm 2 mps 744 mmHg 67%
08:00 +19°C° 0 mm 3 mps 744 mmHg 64%
09:00 +20°C° 0 mm 3 mps 744 mmHg 60%
10:00 +22°C° 0 mm 3 mps 745 mmHg 57%
11:00 +21°C° 0.1 mm 3 mps 745 mmHg 62%
12:00 +20°C° 0.1 mm 3 mps 745 mmHg 67%
13:00 +20°C° 0.1 mm 4 mps 745 mmHg 71%
14:00 +19°C° 0.4 mm 3 mps 745 mmHg 76%
15:00 +18°C° 0.4 mm 2 mps 744 mmHg 81%
16:00 +19°C° 0.4 mm 1 mps 744 mmHg 85%
17:00 +18°C° 0 mm 1 mps 744 mmHg 86%
18:00 +18°C° 0 mm 1 mps 744 mmHg 87%
19:00 +18°C° 0 mm 1 mps 743 mmHg 88%
20:00 +18°C° 0 mm 1 mps 744 mmHg 88%
21:00 +16°C° 0 mm 1 mps 744 mmHg 89%
22:00 +16°C° 0 mm 2 mps 744 mmHg 90%
23:00 +15°C° 0 mm 2 mps 744 mmHg 90%

Tomorrow, 2 August, Monday

Time Temperature Precipitation Wind Pressure Humidity
00:00 +15°C° 0 mm 2 mps 744 mmHg 91%
01:00 +15°C° 0 mm 2 mps 743 mmHg 92%
02:00 +15°C° 0 mm 2 mps 743 mmHg 92%
03:00 +15°C° 0 mm 2 mps 743 mmHg 93%
04:00 +15°C° 0 mm 2 mps 743 mmHg 93%
05:00 +16°C° 0 mm 2 mps 744 mmHg 89%
06:00 +17°C° 0 mm 3 mps 744 mmHg 85%
07:00 +17°C° 0 mm 3 mps 744 mmHg 81%
08:00 +19°C° 0.1 mm 3 mps 744 mmHg 75%
09:00 +20°C° 0.1 mm 4 mps 744 mmHg 69%
10:00 +21°C° 0.1 mm 5 mps 745 mmHg 62%
11:00 +21°C° 0.2 mm 5 mps 745 mmHg 61%
12:00 +22°C° 0.2 mm 6 mps 745 mmHg 59%
13:00 +22°C° 0.2 mm 6 mps 745 mmHg 58%
14:00 +22°C° 0.3 mm 6 mps 745 mmHg 56%
15:00 +22°C° 0.3 mm 6 mps 745 mmHg 55%
16:00 +22°C° 0.3 mm 5 mps 745 mmHg 53%
17:00 +21°C° 0 mm 5 mps 745 mmHg 55%
18:00 +20°C° 0 mm 4 mps 745 mmHg 57%
19:00 +19°C° 0 mm 4 mps 746 mmHg 59%
20:00 +18°C° 0 mm 4 mps 746 mmHg 59%
21:00 +18°C° 0 mm 3 mps 746 mmHg 59%
22:00 +17°C° 0 mm 3 mps 747 mmHg 58%
23:00 +17°C° 0 mm 3 mps 747 mmHg 60%

Day after tomorrow, 3 August, Tuesday

Time Temperature Precipitation Wind Pressure Humidity
00:00 +16°C° 0 mm 3 mps 747 mmHg 61%
01:00 +16°C° 0 mm 3 mps 747 mmHg 62%
02:00 +14°C° 0 mm 3 mps 747 mmHg 65%
03:00 +13°C° 0 mm 3 mps 748 mmHg 68%
04:00 +13°C° 0 mm 3 mps 748 mmHg 71%
05:00 +14°C° 0 mm 3 mps 748 mmHg 70%
06:00 +15°C° 0 mm 4 mps 748 mmHg 68%
07:00 +17°C° 0 mm 4 mps 748 mmHg 67%
08:00 +19°C° 0 mm 5 mps 749 mmHg 61%
09:00 +20°C° 0 mm 5 mps 749 mmHg 56%
10:00 +21°C° 0 mm 5 mps 749 mmHg 50%
11:00 +22°C° 0 mm 5 mps 749 mmHg 47%
12:00 +23°C° 0 mm 5 mps 749 mmHg 43%
13:00 +23°C° 0 mm 5 mps 748 mmHg 40%
14:00 +25°C° 0 mm 5 mps 748 mmHg 39%
15:00 +25°C° 0 mm 4 mps 748 mmHg 38%
16:00 +25°C° 0 mm 4 mps 748 mmHg 37%
17:00 +23°C° 0 mm 4 mps 748 mmHg 43%
18:00 +21°C° 0 mm 3 mps 748 mmHg 49%
19:00 +20°C° 0 mm 2 mps 748 mmHg 55%
20:00 +19°C° 0 mm 2 mps 748 mmHg 57%
21:00 +18°C° 0 mm 2 mps 749 mmHg 59%
22:00 +18°C° 0 mm 1 mps 749 mmHg 61%
23:00 +18°C° 0 mm 1 mps 749 mmHg 61%

4 August, Wednesday

Time Temperature Precipitation Wind Pressure Humidity
00:00 +18°C° 0 mm 1 mps 749 mmHg 62%
01:00 +18°C° 0 mm 1 mps 749 mmHg 63%
02:00 +18°C° 0 mm 1 mps 749 mmHg 62%
03:00 +18°C° 0 mm 1 mps 749 mmHg 62%
04:00 +17°C° 0 mm 2 mps 749 mmHg 61%
05:00 +18°C° 0 mm 2 mps 749 mmHg 62%
06:00 +18°C° 0 mm 2 mps 749 mmHg 62%
07:00 +19°C° 0 mm 2 mps 749 mmHg 62%
08:00 +20°C° 0.1 mm 2 mps 749 mmHg 60%
09:00 +23°C° 0.1 mm 2 mps 749 mmHg 57%
10:00 +24°C° 0.1 mm 2 mps 749 mmHg 55%
11:00 +25°C° 0 mm 2 mps 748 mmHg 52%
12:00 +26°C° 0 mm 2 mps 748 mmHg 49%
13:00 +27°C° 0 mm 2 mps 748 mmHg 46%
14:00 +26°C° 0.3 mm 2 mps 747 mmHg 50%
15:00 +25°C° 0.3 mm 2 mps 747 mmHg 54%
16:00 +25°C° 0.3 mm 2 mps 747 mmHg 58%
17:00 +23°C° 1.2 mm 2 mps 747 mmHg 69%
18:00 +20°C° 1.2 mm 2 mps 747 mmHg 80%
19:00 +18°C° 1.2 mm 2 mps 747 mmHg 91%
20:00 +17°C° 0.2 mm 2 mps 747 mmHg 91%
21:00 +18°C° 0.2 mm 1 mps 747 mmHg 92%
22:00 +18°C° 0.2 mm 1 mps 747 mmHg 93%
23:00 +16°C° 0 mm 1 mps 747 mmHg 93%

5 August, Thursday

Time Temperature Precipitation Wind Pressure Humidity
00:00 +16°C° 0 mm 1 mps 747 mmHg 93%
01:00 +16°C° 0 mm 2 mps 747 mmHg 93%
02:00 +16°C° 0 mm 2 mps 746 mmHg 94%
03:00 +15°C° 0 mm 2 mps 746 mmHg 94%
04:00 +15°C° 0 mm 2 mps 746 mmHg 94%
05:00 +16°C° 0 mm 3 mps 746 mmHg 92%
06:00 +16°C° 0 mm 3 mps 746 mmHg 89%
07:00 +17°C° 0 mm 3 mps 746 mmHg 86%
08:00 +17°C° 0 mm 3 mps 746 mmHg 84%
09:00 +17°C° 0 mm 3 mps 746 mmHg 83%
10:00 +18°C° 0 mm 3 mps 746 mmHg 81%
11:00 +18°C° 0.1 mm 3 mps 746 mmHg 78%
12:00 +19°C° 0.1 mm 3 mps 745 mmHg 75%
13:00 +19°C° 0.1 mm 4 mps 745 mmHg 72%
14:00 +20°C° 0.1 mm 4 mps 745 mmHg 68%
15:00 +20°C° 0.1 mm 4 mps 745 mmHg 64%
16:00 +21°C° 0.1 mm 4 mps 744 mmHg 61%
17:00 +20°C° 0 mm 3 mps 744 mmHg 64%
18:00 +19°C° 0 mm 3 mps 744 mmHg 67%
19:00 +19°C° 0 mm 2 mps 744 mmHg 70%
20:00 +18°C° 0 mm 2 mps 743 mmHg 72%
21:00 +17°C° 0 mm 2 mps 743 mmHg 73%
22:00 +16°C° 0 mm 2 mps 743 mmHg 75%
23:00 +16°C° 0 mm 3 mps 743 mmHg 76%

6 August, Friday

Time Temperature Precipitation Wind Pressure Humidity
00:00 +14°C° 0 mm 3 mps 743 mmHg 77%
01:00 +14°C° 0 mm 3 mps 743 mmHg 79%
02:00 +13°C° 0 mm 3 mps 743 mmHg 82%
03:00 +13°C° 0 mm 3 mps 743 mmHg 86%
04:00 +12°C° 0 mm 3 mps 742 mmHg 90%
05:00 +13°C° 0 mm 4 mps 742 mmHg 85%
06:00 +15°C° 0 mm 5 mps 742 mmHg 80%
07:00 +16°C° 0 mm 6 mps 742 mmHg 75%
08:00 +17°C° 0 mm 6 mps 743 mmHg 69%
09:00 +19°C° 0 mm 6 mps 743 mmHg 63%
10:00 +21°C° 0 mm 7 mps 743 mmHg 57%
11:00 +21°C° 0 mm 7 mps 743 mmHg 55%
12:00 +22°C° 0 mm 7 mps 742 mmHg 53%
13:00 +22°C° 0 mm 7 mps 742 mmHg 50%
14:00 +23°C° 0 mm 7 mps 742 mmHg 48%
15:00 +23°C° 0 mm 6 mps 742 mmHg 46%
16:00 +24°C° 0 mm 6 mps 742 mmHg 45%
17:00 +23°C° 0 mm 6 mps 742 mmHg 49%
18:00 +22°C° 0 mm 5 mps 742 mmHg 53%
19:00 +21°C° 0 mm 5 mps 742 mmHg 58%
20:00 +19°C° 0.1 mm 4 mps 742 mmHg 65%
21:00 +18°C° 0.1 mm 4 mps 742 mmHg 73%
22:00 +17°C° 0.1 mm 3 mps 743 mmHg 81%
23:00 +16°C° 0 mm 3 mps 743 mmHg 85%
Show more